Etusivu
METAR-TAF:

METAR-TAF

Lentoasemat :

Waskish Municipal Airport

Waskish, Minnesota, Yhdysvallat

Leveyspiiri: 48-09-15N, Pituuspiiri: 094-31-01W, korkeus merenpinnasta: 360 m

Tämänhetkinen sää

Tämä raportti tehtiin 25 minuuttia sitten, kello 10.55 UTC
tyyntä
Lämpötila -4°C
Kosteus 93%
Ilmanpaine 1014 hPa
Näkyvyys: 16.1 km

METAR: KVWU 211055Z AUTO 00000KT 10SM M04/M05 A2994 RMK AO2

Aika: 05:20 (11:20 UTC)


TAF: puuttuu

Säähavainnot ja -ennusteet yli 4000 lentoasemalta (METAR- ja TAF-raportit).

Käytössä olevat sääasemat on merkitty karttaan keltaisilla ja punaisilla pisteillä.

Aseta hiiri pisteen päälle nähdäksesi sääaseman nimen.

Klikkaa sitten nähdäksesi säähavainnot ja -ennusteet.

Kartan vaihtaminen: klikkaa mustalla rastilla varustettuja vihreitä pisteitä, niin voit zoomata sisään; viivalla varustettua vihreää pistettä, niin voit zoomata ulos tai vihreitä nuolia, niin pääset viereisille kartoille.


METAR-TAF: